Wind_Speed
5 4 3 3 3 4 6 8 8 7 7 6 6 5 5 4 3 2 2 3 4 6 7 8 10 11 13 14 14 14 13 13 14 15 16 16 17 16 16 15 14 14 15 15 15 15 16 16 16 16 16 17 18 18 18 18 18 19 19 20 21 22 23 25 26 26 27 28 29 30 30 31 31 31 32 32 32 31 31 32 32 31 31 31 31
4 4 4 4 4 5 7 9 9 8 7 6 6 5 4 3 3 3 4 5 6 7 8 10 11 13 14 14 13 13 14 15 16 17 18 18 18 18 17 16 16 16 16 17 17 17 17 18 19 18 18 19 19 20 20 20 20 21 21 22 23 24 25 26 27 28 29 29 30 31 31 32 32 33 33 33 33 33 33 33 34 34 33 33 33
5 5 5 4 4 5 7 9 9 7 6 6 5 5 4 4 4 4 5 6 7 8 10 11 13 14 14 14 13 13 14 15 17 18 19 19 20 19 18 18 18 18 18 18 18 19 19 20 20 20 20 21 21 21 22 22 22 23 23 24 25 25 26 27 28 29 30 31 32 32 33 33 33 33 34 34 34 34 35 35 35 35 35 35 35
5 5 4 3 3 5 7 9 8 7 6 6 5 5 4 5 5 6 6 7 8 10 11 12 13 14 14 14 14 15 16 17 17 18 19 20 20 19 18 18 18 19 19 19 19 20 20 21 21 22 22 22 23 23 24 24 24 25 25 26 27 27 28 29 29 30 31 33 33 34 34 34 34 34 35 35 35 35 35 36 36 36 36 37 37
4 4 3 3 3 4 6 8 8 7 6 6 5 5 5 6 6 7 8 8 10 11 12 13 14 14 14 15 15 16 17 18 19 20 21 22 21 19 19 19 19 19 20 20 20 21 21 21 22 22 23 24 24 25 25 26 26 26 27 28 29 30 30 31 32 32 33 33 34 34 35 35 35 35 35 36 37 37 37 37 37 38 38 38 38
3 3 3 3 3 4 5 7 8 7 6 6 5 5 5 6 7 8 8 9 10 12 12 13 13 14 15 16 17 18 18 19 20 21 22 22 21 20 19 20 20 20 21 21 22 22 22 23 23 24 25 25 26 26 27 28 28 29 29 30 31 31 32 33 34 34 34 34 34 34 35 35 36 36 36 35 35 37 39 39 39 40 40 40 40
2 2 3 3 3 4 5 7 7 7 6 6 6 6 6 7 7 8 9 10 11 12 12 13 14 15 16 18 19 19 20 20 21 22 22 22 21 20 19 20 20 21 21 22 23 23 24 24 25 26 26 27 28 28 29 30 30 31 31 32 32 33 34 34 35 35 36 36 36 36 36 36 36 36 36 35 35 35 37 40 41 42 43 43 43
3 3 3 2 2 4 5 6 7 7 6 6 6 6 6 7 7 8 9 10 11 11 11 12 14 16 18 19 20 20 20 21 21 22 21 21 21 20 20 20 21 21 22 23 24 24 25 26 27 28 29 29 30 30 31 31 32 32 33 34 34 34 35 35 35 36 36 36 37 38 38 38 37 37 37 37 37 36 36 38 40 42 44 45 45
4 4 3 2 2 3 4 5 6 5 5 5 5 5 6 6 7 8 9 10 10 10 11 13 15 17 19 20 20 20 20 21 21 21 21 21 20 21 21 21 22 22 23 24 25 26 27 27 28 29 30 30 31 31 32 33 33 33 34 34 35 35 35 36 36 36 36 36 37 37 38 38 38 39 40 40 40 39 38 38 40 41 43 45 46
4 4 3 2 3 4 4 4 5 5 4 4 4 5 6 6 6 7 8 9 10 11 12 14 16 18 19 20 20 21 21 21 21 21 21 21 20 20 21 21 21 22 23 24 25 25 26 27 28 29 30 30 31 31 32 32 33 33 33 34 34 35 35 35 36 36 37 37 37 37 37 38 39 40 41 42 42 42 41 41 42 42 43 44 45
4 4 3 3 4 4 4 5 5 5 4 4 4 5 6 6 6 7 8 10 11 12 13 15 17 18 19 20 21 21 22 22 21 21 21 20 20 20 20 21 21 22 22 23 24 25 26 26 27 28 29 30 30 31 31 31 32 32 33 33 33 34 34 35 36 36 36 36 36 37 38 39 40 41 42 43 44 44 44 43 44 45 45 45 47
3 3 3 3 4 4 5 5 6 5 4 4 4 5 6 6 6 8 9 11 12 13 15 16 18 19 20 21 21 21 21 21 20 20 20 20 20 20 20 21 21 22 22 23 24 25 26 27 28 28 29 29 30 30 30 31 31 32 32 33 33 33 34 34 34 35 35 36 37 39 40 41 42 42 43 44 45 46 46 46 46 47 47 47 48
3 4 4 4 5 5 6 6 6 4 3 3 4 5 6 6 7 9 10 11 13 15 17 18 19 20 20 21 20 20 19 19 19 19 19 19 20 20 20 21 22 22 23 24 25 26 26 27 27 28 28 28 29 29 29 30 30 30 31 31 31 32 32 33 34 35 36 37 39 40 41 42 42 44 45 46 47 48 48 48 48 49 49 49 49
4 5 5 5 5 6 6 6 5 3 2 3 4 5 6 7 10 11 11 12 14 16 18 18 19 19 19 18 18 18 18 18 19 19 20 20 20 21 22 22 23 24 25 25 25 26 26 26 26 26 27 27 27 28 28 28 28 28 29 29 30 31 32 33 34 36 37 37 39 40 41 43 44 46 47 48 49 49 50 51 51 51 52 51 51
4 5 4 4 6 6 6 5 3 2 2 3 5 6 7 9 12 12 12 13 15 16 17 17 17 16 16 16 17 17 18 19 20 21 21 22 22 23 24 24 25 25 24 24 25 25 25 25 25 25 25 26 26 26 26 27 27 28 28 29 30 31 33 34 35 36 37 38 40 41 43 45 46 47 48 49 50 52 53 54 55 55 55 54 53
3 3 4 5 6 5 5 4 2 2 2 4 6 7 8 11 13 14 13 13 14 15 15 15 16 16 16 17 18 19 19 20 21 22 23 23 24 24 25 25 25 25 25 24 24 24 24 24 24 24 24 24 24 25 26 27 27 28 29 30 31 32 33 34 35 37 38 40 42 43 44 46 47 49 50 52 54 55 57 58 59 60 60 58 57
3 3 4 4 4 4 3 3 2 2 3 5 7 8 10 12 14 14 13 13 14 15 16 16 17 17 18 18 19 19 20 21 22 23 24 24 24 25 25 26 25 25 24 24 23 23 22 22 23 23 23 24 25 25 26 27 28 29 30 31 31 32 34 35 37 38 40 42 43 45 47 49 51 53 55 57 58 60 61 62 63 63 64 63 62
4 4 3 3 3 3 3 3 2 3 4 6 9 11 12 13 14 13 13 14 15 16 17 18 18 18 18 18 18 18 20 21 23 23 24 25 25 25 25 24 24 24 23 23 22 22 22 23 23 24 24 25 25 26 27 28 28 29 30 31 32 34 35 37 39 41 43 45 47 49 51 53 55 57 59 60 61 62 63 64 64 64 65 65 65
6 5 3 3 3 3 3 3 3 4 5 8 10 12 13 13 13 13 14 14 16 17 17 18 18 17 17 17 17 18 20 22 23 24 24 25 25 25 23 22 22 22 22 22 22 22 23 23 24 24 25 26 26 27 27 28 29 30 31 33 34 36 38 40 42 44 46 48 50 52 54 56 58 59 61 62 62 63 63 64 64 65 66 67 67
6 5 4 3 2 2 3 4 4 4 6 9 11 12 13 13 13 13 13 13 15 16 16 17 16 16 16 16 17 19 21 23 23 24 25 25 26 25 24 22 22 21 22 22 22 23 23 24 25 25 26 26 26 27 28 29 30 31 33 35 36 38 40 42 44 47 49 51 53 55 56 58 60 61 62 62 62 63 63 64 65 65 67 69 69
7 5 3 2 2 3 4 4 4 6 8 10 11 11 12 12 11 11 11 12 13 14 15 15 15 15 15 16 17 19 21 23 24 25 26 26 26 25 24 23 22 22 22 23 23 24 25 25 26 26 26 26 27 28 29 30 32 33 35 36 38 40 42 45 47 49 51 53 55 57 59 60 61 61 62 62 62 63 64 65 67 68 69 71 72
7 5 3 3 3 4 4 5 6 7 9 10 10 10 11 11 10 10 10 12 13 13 13 14 15 15 16 17 19 20 21 23 24 26 27 27 27 25 24 23 22 23 23 24 24 25 26 26 26 27 27 28 29 30 31 32 34 35 36 38 40 42 44 47 49 51 53 55 57 59 60 61 61 62 62 63 63 65 66 67 69 70 71 72 73
8 6 5 4 5 5 5 6 7 8 9 10 10 10 10 9 9 9 10 11 12 13 13 14 15 16 16 18 20 21 22 24 26 27 28 28 27 26 25 24 23 24 24 25 26 26 27 27 27 28 29 29 30 32 33 34 36 37 38 40 42 44 46 48 50 52 55 57 59 60 60 61 61 62 63 64 66 67 69 70 71 72 72 73 74
7 6 6 5 5 6 6 7 8 8 9 10 10 9 9 9 9 9 10 11 12 13 14 15 16 17 17 19 21 22 24 26 27 28 29 29 29 28 27 26 25 26 27 27 28 28 28 28 29 30 31 32 33 34 35 37 38 39 40 42 44 46 47 50 52 54 56 58 59 60 61 61 62 63 65 67 68 70 71 72 72 73 74 75 75
7 7 6 6 6 7 8 8 8 8 9 10 10 9 9 9 10 10 11 12 13 14 16 17 17 18 19 21 22 24 26 28 28 29 30 30 30 30 28 28 28 28 28 29 29 29 30 30 31 32 33 34 35 37 38 39 39 41 42 43 45 47 49 52 54 56 57 59 60 61 61 63 64 66 68 69 69 71 72 73 74 75 76 77 77
7 7 7 7 7 7 8 8 8 8 9 9 9 9 9 9 10 11 12 13 15 16 17 17 18 19 20 22 24 26 27 28 29 30 31 32 32 31 30 29 29 28 29 29 30 31 31 32 33 34 35 36 37 38 39 40 41 42 43 45 47 49 51 53 55 56 58 59 61 62 63 65 66 67 68 69 70 71 73 75 76 77 78 78 77
8 7 7 7 7 7 7 7 7 8 8 8 8 8 8 9 11 12 14 15 16 17 17 18 19 20 21 23 24 26 27 28 30 31 33 33 33 32 30 29 28 28 29 30 31 32 33 34 35 36 37 38 39 40 40 41 42 43 45 46 48 50 52 54 55 57 59 60 61 62 65 66 67 68 69 70 71 72 74 75 77 77 78 77 75
8 7 7 7 6 6 6 6 7 7 7 6 7 7 8 9 11 13 15 16 17 17 18 18 19 21 22 23 25 26 28 29 31 32 34 34 33 32 31 29 29 29 30 31 32 33 34 35 36 38 39 39 40 41 42 43 43 44 45 47 49 51 52 54 56 57 58 60 62 64 66 67 68 69 70 71 73 73 74 76 77 77 76 73 68
7 7 6 6 5 5 5 6 7 6 5 5 6 8 9 10 12 14 16 16 16 17 18 19 20 21 23 24 26 27 29 30 32 33 34 34 34 33 31 30 30 30 31 32 33 34 35 37 38 39 40 41 41 42 43 43 44 45 46 47 49 51 53 55 56 57 58 61 63 65 66 67 68 69 71 72 74 75 76 76 76 75 71 66 60
7 6 6 5 4 5 5 5 5 4 4 6 7 9 10 12 14 15 16 16 16 18 19 20 21 22 24 25 27 28 30 31 32 33 35 35 34 33 31 31 31 31 32 33 34 35 37 38 39 40 41 42 42 43 43 44 44 45 46 48 50 51 53 55 55 57 59 62 64 65 66 67 68 69 71 72 74 75 77 77 75 71 65 59 54
7 7 6 4 4 4 4 4 3 3 5 7 8 10 12 13 14 15 15 16 17 18 19 21 22 23 25 26 28 29 30 31 33 34 35 35 34 33 32 32 32 32 33 34 35 36 37 38 40 41 41 42 43 43 44 44 44 45 47 48 50 52 53 54 55 57 60 62 64 65 66 67 68 69 71 72 74 76 76 75 71 65 59 54 51
7 6 5 4 4 3 2 1 2 4 6 7 9 11 13 14 14 15 15 16 17 18 20 21 23 24 26 27 28 29 30 32 33 35 35 35 34 34 33 33 33 33 34 35 36 37 38 39 40 41 42 43 43 43 43 44 44 46 47 49 51 52 53 54 56 58 61 63 64 65 66 67 68 69 70 72 74 75 75 72 65 59 55 52 50
6 5 5 4 3 2 1 2 4 5 6 8 10 12 13 14 14 14 15 16 17 19 20 22 24 25 26 27 28 30 31 33 34 35 35 35 35 35 34 33 33 33 34 35 36 37 38 39 40 41 43 43 44 43 43 44 45 46 48 49 51 52 53 54 56 59 61 63 64 64 65 66 67 68 70 72 74 74 72 67 60 55 52 50 48
5 5 4 4 2 1 3 5 6 6 8 9 11 12 13 13 14 14 15 17 18 19 21 23 24 26 27 28 29 30 32 33 34 34 35 35 35 35 34 34 34 34 34 35 36 37 38 39 41 42 43 44 44 43 44 44 45 47 48 50 51 52 53 55 57 60 62 63 64 65 65 66 67 69 70 72 73 72 68 61 55 52 50 48 45
5 5 4 3 1 1 3 5 6 8 9 10 11 12 12 13 13 14 16 17 19 21 22 24 25 26 27 28 30 31 32 33 33 33 34 35 35 35 35 34 34 34 34 35 36 37 38 40 41 42 43 44 43 43 44 45 46 47 49 50 51 51 53 56 58 60 62 64 64 65 65 66 67 69 71 72 73 70 64 56 51 50 48 46 43
6 5 3 1 1 2 3 5 7 8 9 10 10 11 12 13 14 15 17 18 19 21 22 24 25 26 27 29 30 31 32 32 32 33 34 35 35 35 35 34 34 34 34 35 36 37 38 40 41 42 43 43 43 43 44 45 46 48 49 49 50 52 54 56 58 61 63 64 64 64 65 67 68 69 71 73 72 69 61 52 48 48 47 45 41
6 4 2 1 2 3 4 6 7 8 9 10 10 11 12 13 14 16 17 18 20 21 22 23 24 26 27 29 30 30 31 32 32 33 34 35 35 35 35 35 35 34 34 35 36 37 39 40 41 42 43 43 43 43 44 45 46 48 49 49 50 52 54 57 59 61 63 64 65 65 66 67 68 70 72 73 72 67 58 50 46 46 45 43 39
6 5 3 3 4 5 6 7 8 9 10 10 11 12 13 14 15 16 17 18 19 21 22 23 24 25 27 28 29 30 31 32 32 33 34 35 35 35 35 35 35 35 35 36 37 38 39 40 41 42 42 42 42 43 43 45 46 48 48 49 50 52 55 57 60 61 63 64 66 67 68 68 69 71 73 73 71 66 57 49 45 45 43 42 39
7 6 5 5 6 7 8 9 9 10 11 11 12 13 14 15 15 16 17 18 19 20 21 22 24 25 27 28 29 30 31 31 32 33 34 35 35 35 35 35 35 36 36 37 37 38 39 40 41 41 42 42 42 42 43 45 46 47 47 48 50 52 55 58 60 61 63 65 66 67 69 69 70 72 73 74 71 65 56 49 46 46 44 42 38
8 8 7 6 7 8 9 10 11 11 11 12 13 14 14 15 15 16 17 18 19 20 21 22 24 25 27 28 29 29 30 31 32 33 34 34 35 35 35 35 36 37 37 37 37 38 38 39 40 41 41 41 41 42 43 45 46 46 47 48 50 53 55 58 60 62 63 65 67 68 69 70 71 73 74 74 71 64 56 50 48 48 46 43 36
8 8 7 7 8 9 10 10 11 11 12 12 13 13 14 15 15 16 17 18 19 20 21 22 24 25 26 27 28 29 30 31 32 33 33 34 34 35 35 36 37 37 38 37 37 37 38 39 40 41 41 41 41 42 44 45 46 46 46 48 50 53 56 58 61 63 64 66 67 68 69 70 72 73 75 75 71 64 56 52 51 51 49 45 35
8 7 7 7 8 9 10 10 11 12 12 13 13 13 14 14 15 16 17 19 19 20 21 22 23 25 26 27 28 29 30 31 32 32 33 33 34 34 35 37 37 38 37 37 37 37 38 39 40 40 41 41 42 43 44 45 45 45 46 48 50 53 56 59 62 64 65 67 68 68 69 70 72 74 76 75 71 64 57 53 53 52 50 47 34
8 8 7 8 9 10 10 11 11 12 12 12 13 13 13 14 15 17 18 19 19 20 21 22 23 24 25 26 28 29 30 31 31 32 33 33 34 35 36 37 38 38 37 37 37 37 38 38 39 40 41 42 43 44 45 45 45 45 46 48 51 54 57 60 63 64 67 68 69 69 69 70 73 75 76 75 71 64 57 54 54 54 51 45 32
9 9 9 9 10 11 11 11 12 12 12 13 13 13 14 15 16 18 18 19 19 20 21 22 23 24 25 26 27 29 30 30 31 32 32 33 35 36 37 38 38 38 37 37 37 37 38 38 39 40 41 42 43 44 45 45 44 45 46 48 51 54 57 61 63 65 68 69 70 69 69 71 73 76 76 75 70 63 57 55 55 54 51 45 30
10 10 10 11 11 12 12 12 12 13 13 13 13 14 15 16 17 18 18 18 19 20 21 22 23 24 25 26 27 28 29 30 31 32 33 34 36 37 38 38 38 38 37 37 36 37 38 38 39 40 42 42 43 44 44 44 44 45 46 49 52 55 58 61 64 66 69 70 70 70 71 72 74 75 76 73 68 62 57 55 55 54 52 44 29
11 11 12 12 12 12 12 13 13 13 13 14 14 15 16 17 17 18 18 18 19 20 21 22 22 23 25 26 27 28 29 30 31 32 33 35 36 37 38 38 38 38 37 37 36 36 37 38 39 41 42 42 43 44 44 43 44 45 47 49 52 55 58 61 64 67 69 71 71 71 72 73 74 75 75 72 67 61 57 56 55 54 51 45 29
12 13 13 13 13 13 13 13 13 13 13 14 15 16 16 17 17 18 18 18 19 20 21 22 22 23 24 25 26 28 29 30 31 32 34 35 36 37 38 39 39 38 37 36 36 36 37 38 39 41 42 42 43 44 44 44 44 45 46 49 52 55 58 61 64 67 69 70 71 71 72 73 75 76 75 71 66 60 56 55 54 53 51 46 33
13 13 14 14 13 13 14 14 13 13 14 15 16 16 17 17 17 18 18 19 19 20 21 22 22 23 24 25 26 28 29 30 31 33 34 35 36 38 39 39 39 38 37 36 36 36 36 37 39 41 42 42 43 44 43 44 44 44 45 48 52 55 58 61 64 66 68 70 71 72 72 73 74 75 73 69 64 58 54 53 53 52 50 47 37
14 14 14 14 14 14 14 15 14 14 14 15 16 17 17 17 18 19 19 19 19 20 21 21 22 23 24 25 26 27 29 30 31 32 34 35 36 38 39 40 39 39 37 36 36 36 36 37 39 41 42 42 43 43 43 43 43 43 45 48 51 54 57 61 63 66 68 70 71 71 71 71 72 73 72 69 63 57 52 51 51 50 48 45 37
14 15 14 14 15 15 16 16 15 15 15 15 17 18 18 19 19 19 19 19 20 21 21 21 22 22 23 25 26 27 29 30 31 32 33 35 36 38 39 40 40 39 38 36 36 36 36 37 39 41 42 43 43 43 43 43 43 43 44 47 50 54 57 60 63 65 67 70 71 71 71 71 71 72 72 70 65 58 52 50 50 49 47 45 39
16 16 16 16 16 16 17 17 16 16 16 17 17 19 19 20 20 20 20 19 20 21 21 21 22 22 23 24 26 27 29 30 31 32 33 34 36 38 39 40 40 39 38 37 36 36 36 37 39 41 42 43 43 43 43 43 43 44 45 47 50 53 56 59 62 65 67 69 70 71 71 71 72 73 73 71 67 60 53 49 49 49 47 45 40
Wind_Direction
152 159 166 171 168 164 163 159 157 157 156 152 151 150 150 150 156 180 224 258 272 282 289 296 301 304 307 309 310 308 305 303 303 304 304 304 301 297 290 281 270 261 258 258 258 259 262 265 268 271 274 277 280 283 284 284 285 286 287 288 289 291 292 294 296 297 297 297 297 298 298 298 299 299 299 299 300 300 301 301 301 300 299 298 297
164 170 172 174 173 172 172 170 170 170 166 163 165 167 172 184 200 219 241 259 273 285 294 302 306 308 309 309 308 306 305 306 308 310 312 310 305 298 289 280 272 266 263 262 263 264 267 270 273 275 278 280 283 286 287 288 288 289 289 290 290 291 292 293 294 295 294 294 294 295 295 296 297 298 298 299 298 298 299 299 299 299 298 298 297
179 179 179 178 176 177 177 176 178 178 175 177 179 185 196 217 238 251 261 272 285 293 300 306 309 310 310 308 307 306 306 306 308 311 312 311 307 301 292 285 279 275 271 270 269 270 272 275 278 281 283 285 287 288 290 291 291 291 292 292 292 292 292 292 293 293 294 294 294 295 295 296 297 297 298 298 298 298 298 299 299 298 298 298 297
182 182 181 180 182 186 184 184 185 184 188 194 196 204 219 239 256 267 275 286 294 300 306 311 312 312 311 310 309 308 307 307 308 310 312 311 308 302 293 286 281 277 275 273 273 274 276 279 282 284 286 288 289 290 292 292 292 292 293 293 293 293 292 291 291 292 292 293 294 295 296 297 298 298 298 298 298 298 298 299 299 298 298 298 298
184 179 186 193 199 200 195 192 190 190 200 207 209 217 233 250 263 273 284 293 300 305 310 313 314 313 312 310 310 310 310 310 312 314 314 312 309 303 296 289 284 281 278 278 278 279 280 282 283 285 286 287 289 290 291 291 291 291 292 292 292 292 292 291 291 291 291 291 293 294 295 297 297 298 298 298 300 300 300 300 299 299 299 298 298
189 182 194 202 211 216 209 200 193 194 206 217 223 234 246 258 270 281 291 299 303 307 312 315 316 314 313 313 313 313 313 313 314 314 312 310 307 303 297 292 288 286 284 283 282 282 282 282 283 284 285 286 288 289 290 291 290 291 290 290 290 291 291 291 292 292 292 292 292 293 294 295 296 297 297 298 299 301 302 302 301 300 300 299 298
211 207 209 203 211 223 217 207 197 195 204 213 227 245 259 269 279 288 296 301 304 309 314 316 316 315 314 314 314 314 314 313 312 311 310 308 304 301 297 293 289 287 285 284 284 283 284 284 285 285 286 287 288 289 289 289 289 289 289 289 290 291 291 292 292 293 294 294 295 295 296 297 298 298 299 300 300 299 300 301 302 301 300 299 297
233 230 228 212 214 230 220 205 196 195 200 209 222 244 263 275 286 295 300 304 308 312 314 315 315 315 315 315 314 314 312 311 310 309 309 307 305 301 298 295 292 289 287 286 286 286 286 286 287 287 288 288 288 288 288 287 287 288 289 290 292 292 293 293 294 294 295 297 298 299 300 302 303 303 303 303 302 300 298 297 298 298 298 297 296
246 242 246 237 237 243 224 200 195 200 206 216 234 253 267 279 291 300 303 308 310 311 311 312 314 315 315 315 313 310 309 308 309 310 311 310 308 305 302 300 297 295 293 291 290 289 289 288 288 288 288 288 287 287 287 288 289 291 292 293 294 295 295 296 297 297 298 299 300 302 303 305 305 304 304 303 302 301 299 296 294 294 294 294 294
255 247 245 241 246 248 226 202 203 212 218 236 262 274 279 287 300 305 306 308 308 307 309 312 315 315 313 311 308 307 308 310 312 313 313 312 311 310 308 306 303 300 297 295 293 292 291 290 290 289 289 289 289 290 291 293 294 295 296 297 298 299 299 300 301 301 301 302 303 304 304 303 302 301 301 301 301 301 300 298 296 295 294 292 292
255 249 237 230 239 240 221 205 210 220 232 255 273 282 286 294 304 307 305 305 306 309 312 316 316 313 309 307 306 308 310 312 313 314 314 315 316 316 316 314 310 307 303 301 299 297 296 295 295 295 295 296 297 299 300 301 301 302 302 303 303 303 304 304 304 304 304 304 304 304 303 302 302 301 300 301 301 300 299 298 297 295 294 293 292
256 252 239 228 232 230 214 206 215 226 241 263 277 284 286 294 304 303 302 306 312 316 318 317 314 310 307 306 307 310 313 315 317 318 320 323 325 325 322 318 314 311 309 308 307 307 306 305 305 305 306 306 307 307 307 307 307 307 307 307 307 307 306 306 305 305 305 305 304 304 304 303 303 302 301 301 300 298 297 296 296 295 295 294 292
261 253 243 236 230 217 205 207 218 228 252 280 290 291 294 303 305 303 306 316 322 322 320 316 311 308 307 308 312 316 319 323 325 328 329 331 330 328 323 320 317 317 317 317 316 315 313 313 313 313 313 313 312 312 311 311 310 309 309 309 308 307 307 306 306 306 305 304 304 303 303 303 302 302 301 300 298 297 297 297 297 297 297 295 293
260 250 245 235 216 200 197 206 218 236 275 294 295 294 302 309 308 308 316 325 326 322 317 313 311 310 312 316 321 325 329 333 335 335 336 336 335 330 327 325 324 324 324 322 320 319 318 318 317 317 317 317 316 315 314 313 312 311 310 309 308 308 307 307 306 305 305 304 304 304 304 304 304 302 301 300 299 299 299 299 299 298 297 296 294
256 242 230 204 192 189 194 206 220 251 285 290 285 292 305 310 310 314 320 323 323 321 318 317 317 319 323 328 331 336 340 341 341 341 341 339 336 332 329 329 328 327 325 323 322 322 322 321 321 320 320 318 317 316 315 314 313 312 311 310 309 308 307 307 307 306 307 307 308 307 306 305 304 303 302 302 302 302 302 301 300 299 298 296 295
243 214 186 180 181 183 194 209 228 252 276 279 284 298 309 311 313 315 318 322 326 328 329 328 329 332 335 338 342 345 346 344 343 343 341 339 336 332 330 329 328 327 326 325 325 324 324 323 322 320 318 316 316 315 315 314 314 313 312 311 310 310 310 309 310 310 310 309 308 307 306 305 306 306 307 307 306 306 305 304 303 302 300 298 297
237 197 173 177 180 186 204 217 225 238 264 278 291 306 313 315 316 317 321 331 337 340 339 338 338 340 342 345 348 348 345 343 343 343 341 340 337 333 331 329 327 326 326 326 325 324 323 321 319 317 316 315 315 316 316 316 315 314 313 312 311 311 312 311 311 310 310 309 309 310 310 311 312 312 311 310 310 308 307 307 306 305 304 303 301
244 220 190 185 192 206 219 214 216 242 269 287 301 311 316 319 321 323 332 341 343 342 341 339 339 341 343 347 349 345 342 343 344 343 342 340 338 334 331 327 325 324 324 323 323 322 320 318 317 316 316 317 318 318 318 317 315 313 312 312 313 313 313 313 313 313 313 314 315 316 316 316 315 314 313 312 311 310 309 308 308 307 306 305 304
249 236 209 197 208 220 215 203 215 251 279 296 306 313 318 323 328 333 339 342 341 339 338 336 336 339 343 346 346 342 341 344 344 344 344 342 340 336 332 328 326 325 324 323 321 320 320 319 320 320 320 321 321 319 318 316 314 314 315 316 316 316 316 316 317 317 318 319 319 319 318 317 316 315 314 313 312 311 310 309 308 307 305 304 302
250 240 220 210 220 217 206 208 229 264 287 299 306 313 320 328 334 336 338 338 336 335 333 331 334 338 342 343 342 340 341 343 345 346 347 345 342 340 336 334 332 330 328 326 325 324 324 324 324 324 323 322 321 319 318 317 317 318 318 318 318 318 319 320 320 321 321 321 321 320 319 318 317 316 315 314 313 311 310 308 307 305 304 303 302
255 247 236 233 228 205 208 231 259 278 291 300 308 316 324 333 336 334 335 337 334 331 329 330 333 338 341 338 337 339 341 344 346 348 349 347 345 343 340 338 336 333 331 329 329 328 328 328 326 325 323 322 321 320 320 320 320 320 320 320 320 321 322 322 323 323 323 322 322 321 320 319 318 316 315 314 313 311 310 309 308 307 306 304 304
261 259 256 244 221 209 220 249 271 285 295 303 312 322 330 335 336 335 338 337 332 329 328 329 333 338 339 333 333 338 342 345 349 350 350 348 347 345 342 340 337 334 333 332 332 331 330 328 326 325 325 324 323 322 322 322 322 322 322 322 322 323 323 324 324 324 324 323 323 322 320 319 318 317 316 315 314 313 312 310 309 308 307 306 305
260 259 251 229 219 227 245 263 278 291 301 310 320 330 335 336 338 340 340 334 328 327 329 332 335 338 335 329 332 340 345 349 352 352 350 349 348 346 345 342 338 337 337 336 334 333 331 329 328 327 327 326 325 325 325 325 325 324 324 324 324 324 324 325 325 325 325 324 323 322 320 319 319 318 318 317 315 314 312 311 309 308 308 307 307
250 244 233 222 230 252 268 278 288 300 309 317 327 335 338 339 341 341 336 328 326 329 333 336 335 334 332 331 337 344 348 351 353 352 350 349 349 348 346 343 342 342 340 338 336 334 332 331 331 330 329 329 329 328 328 328 327 326 325 325 325 325 326 327 327 326 325 324 322 321 321 321 321 321 319 318 316 314 313 312 312 311 311 310 309
231 226 224 227 244 263 276 287 299 310 315 320 329 336 338 336 337 337 330 326 331 335 337 336 334 333 334 337 342 347 350 352 352 351 350 351 351 350 348 346 345 344 341 339 337 335 335 334 334 333 332 332 331 331 330 329 327 327 326 326 327 327 328 328 328 326 324 323 323 323 323 324 323 322 320 318 317 315 315 315 314 314 313 312 312
212 218 229 240 255 269 281 292 304 310 315 320 327 333 333 330 332 332 329 331 337 339 336 334 334 335 338 342 346 349 351 351 351 351 352 352 352 351 349 347 346 342 340 339 338 338 337 337 336 335 334 334 333 332 331 329 329 329 329 329 329 330 330 329 327 326 324 324 325 326 326 326 324 322 320 319 318 318 317 317 316 316 315 315 314
211 223 239 254 267 276 285 295 304 309 315 322 326 330 331 329 329 329 332 338 340 337 334 335 337 339 342 346 348 349 350 351 352 352 352 353 353 351 349 347 344 341 340 340 340 340 339 338 338 337 336 335 334 333 332 331 331 331 331 331 332 331 330 328 327 326 327 327 328 328 328 326 324 323 321 320 320 320 320 319 319 318 317 316 315
225 235 247 260 271 279 287 295 301 309 318 325 330 334 335 331 329 331 337 340 338 336 337 339 341 343 345 347 349 349 351 353 353 352 353 354 352 351 349 346 343 342 342 342 343 342 341 340 340 339 338 337 335 335 334 334 333 333 333 333 333 331 329 328 328 329 330 330 330 330 328 326 325 324 323 323 322 322 322 321 321 320 319 318 317
237 245 252 258 265 274 282 289 298 310 325 335 340 340 337 334 334 337 339 338 336 338 341 344 345 345 347 348 350 351 353 353 353 353 353 353 352 350 348 344 343 343 343 344 344 343 343 342 342 341 339 338 337 336 336 335 335 335 335 334 332 331 330 330 331 332 332 332 332 330 329 328 327 326 325 325 325 325 325 324 323 322 321 320 319
236 242 248 251 255 264 273 284 299 321 341 346 344 339 337 337 339 340 338 336 339 343 345 346 346 346 348 350 351 353 354 353 352 353 354 353 350 348 345 344 344 344 344 344 344 344 344 343 343 341 340 339 338 337 337 336 336 336 335 333 332 331 332 332 333 334 334 334 332 331 330 329 328 328 327 327 327 327 327 326 325 323 322 321 320
230 239 250 254 255 259 270 285 310 342 353 347 341 337 337 339 339 337 336 338 343 346 346 347 347 348 350 351 352 353 353 352 353 354 354 351 348 346 345 344 344 343 343 343 344 344 344 343 342 340 339 339 338 338 337 337 337 336 334 333 333 333 334 335 336 336 336 335 334 333 332 330 330 329 329 329 330 330 329 328 326 325 324 323 321
227 236 248 253 253 254 260 284 341 358 352 341 335 334 335 336 336 335 336 341 345 346 347 347 347 349 351 352 352 352 351 352 354 354 351 348 346 346 345 345 343 342 342 342 343 343 342 341 340 339 339 339 339 338 338 337 337 336 335 335 335 335 336 337 338 338 337 337 336 334 333 332 332 332 332 332 332 332 330 329 327 326 326 324 323
224 228 232 238 244 254 310 1 8 359 344 333 330 331 333 334 334 335 338 343 346 346 346 347 349 350 351 352 352 351 352 353 353 351 349 347 346 345 345 344 342 341 341 341 341 340 339 339 339 340 340 340 339 339 338 338 337 336 336 336 337 338 339 340 340 340 340 339 338 336 335 334 333 334 334 335 335 334 332 330 328 328 327 326 324
219 219 219 223 230 270 342 358 354 339 331 330 330 330 331 333 335 337 340 343 345 345 346 348 349 351 351 351 351 351 352 353 351 348 346 346 345 345 344 343 342 340 340 339 339 338 338 339 340 341 340 340 340 339 339 338 338 337 338 338 339 340 341 342 342 343 342 341 339 338 336 335 336 336 337 337 337 336 334 331 330 329 328 327 325
219 217 215 212 208 337 349 341 327 319 322 326 327 328 331 334 336 338 341 343 344 345 347 348 349 350 350 350 350 351 352 350 347 346 345 345 345 345 344 343 341 340 339 338 337 337 339 340 341 341 340 340 340 340 339 339 339 339 340 340 342 343 344 344 345 345 344 343 341 339 338 337 338 339 339 340 340 338 336 333 332 332 330 329 326
229 227 223 220 7 353 335 316 307 310 317 322 326 330 333 336 338 339 341 342 343 345 346 347 349 349 349 349 350 351 349 347 345 345 345 345 345 345 344 343 341 340 339 337 337 339 340 341 341 341 341 341 340 340 339 340 340 341 342 343 344 345 346 346 347 346 346 345 343 341 340 340 340 341 343 343 342 340 338 336 335 334 332 330 327
238 245 268 326 328 317 306 301 303 309 317 325 331 334 335 336 338 339 340 341 343 344 345 346 348 348 348 349 349 348 346 345 345 345 344 345 345 345 345 343 342 340 339 339 340 341 342 341 341 341 341 341 340 340 340 341 342 343 344 345 347 347 348 348 348 348 347 346 344 343 342 342 343 344 345 345 344 342 341 339 338 337 334 332 329
257 269 286 292 288 291 295 302 311 318 324 330 334 334 334 336 338 339 339 340 341 342 344 345 347 347 348 348 347 345 345 344 345 345 344 345 345 345 344 343 342 341 340 341 342 342 342 342 341 341 341 341 341 341 342 342 343 345 346 348 349 349 350 350 350 349 348 347 346 345 344 344 345 347 348 347 346 344 343 342 342 341 338 335 331
275 277 281 281 283 293 304 314 322 326 328 331 332 332 333 335 337 337 337 338 339 341 343 345 346 346 347 346 345 344 344 344 345 345 345 345 345 344 344 342 341 341 342 343 343 343 342 342 341 341 341 341 341 342 343 344 345 347 348 349 350 352 352 352 351 350 350 349 348 347 346 346 348 349 349 349 348 346 345 345 345 344 343 339 333
275 277 281 284 290 301 314 323 326 326 327 328 329 330 332 334 335 335 334 336 338 341 343 345 345 346 345 344 344 344 344 344 345 345 345 344 344 343 342 342 342 343 344 344 343 343 342 341 341 341 341 342 342 343 344 345 347 348 350 351 352 353 353 353 353 353 353 351 350 348 348 348 349 350 351 351 350 349 348 348 349 348 347 344 338
274 279 283 286 293 306 319 325 324 321 323 325 326 328 330 331 332 331 332 336 339 342 344 344 344 344 343 343 343 344 344 345 346 345 344 344 343 342 342 342 344 345 345 344 343 342 342 341 341 341 342 343 343 344 346 347 349 350 352 353 354 355 355 355 355 355 355 353 352 350 350 350 351 352 353 353 352 351 351 351 351 351 349 347 344
275 280 283 287 297 311 320 321 316 315 318 321 323 325 328 328 329 330 333 337 341 343 343 342 342 341 341 342 343 344 345 346 346 345 344 343 342 342 343 345 346 346 345 344 343 342 342 341 341 342 343 344 345 346 347 349 350 352 353 354 355 356 356 357 357 357 356 355 353 352 352 352 352 353 354 354 354 353 353 353 353 353 352 350 348
280 285 291 298 306 313 315 311 308 310 314 317 320 323 326 327 328 331 335 339 342 342 340 338 338 339 340 342 343 344 345 345 346 345 344 343 343 344 346 347 347 346 345 344 343 342 342 341 342 343 345 345 346 348 349 351 352 353 354 355 356 357 357 358 359 358 357 356 355 354 354 354 354 355 355 355 355 355 355 355 355 355 355 353 350
290 296 300 304 307 308 306 303 303 307 311 315 320 324 326 327 329 332 336 339 340 338 335 334 335 338 340 342 343 344 345 345 345 345 344 344 345 347 348 348 347 346 345 344 343 342 341 342 343 345 346 346 347 349 351 352 353 353 354 356 357 357 358 360 0 360 359 358 356 355 355 356 356 357 357 356 356 356 356 356 357 357 357 356 353
293 297 300 302 303 301 299 299 302 307 313 317 322 325 325 327 329 332 334 336 335 332 330 331 334 337 340 342 343 344 344 345 345 344 344 346 347 348 348 348 347 346 345 345 344 342 342 343 345 347 347 347 348 350 352 353 354 354 355 357 357 358 360 1 1 1 360 359 357 357 357 357 358 359 359 358 356 356 356 357 358 358 359 358 355
293 296 298 299 298 296 296 299 303 308 313 319 323 324 324 326 328 329 330 330 329 328 328 330 334 337 340 341 342 343 344 344 344 345 346 348 348 348 348 347 347 346 346 345 343 343 343 345 347 348 348 348 349 351 353 354 355 355 356 357 357 358 0 2 2 1 1 360 359 358 358 359 359 360 360 359 358 356 356 357 358 359 359 360 358
293 294 294 293 292 292 294 298 302 307 313 319 322 322 322 323 323 323 324 325 325 325 327 330 334 337 338 340 342 342 342 343 344 346 347 348 348 348 348 347 347 347 346 345 344 344 344 346 347 348 349 349 350 351 353 355 355 355 356 357 358 359 1 2 2 2 2 1 360 360 360 0 1 1 0 359 358 357 357 357 358 360 0 1 1
289 288 288 287 287 290 293 296 300 306 313 319 320 318 318 318 318 317 319 322 323 324 326 330 333 335 337 339 341 341 341 343 345 347 348 348 348 348 347 347 347 347 346 345 344 344 345 346 348 349 349 350 350 352 354 355 356 355 356 357 358 360 2 3 3 3 2 2 1 1 1 2 3 2 1 0 359 357 357 357 359 0 1 1 1
286 284 284 285 287 290 293 296 301 307 314 318 316 314 314 313 312 312 316 319 321 323 325 329 332 334 336 338 340 340 341 343 345 346 347 347 347 347 347 348 348 348 347 346 345 345 345 346 348 349 350 349 350 351 354 355 355 355 355 356 358 0 2 3 4 3 3 3 3 3 3 3 4 4 3 2 0 359 358 358 360 1 3 2 1
286 285 285 287 289 291 293 298 304 308 312 313 312 310 310 309 307 309 313 317 319 321 324 328 330 332 335 338 339 340 341 343 345 345 346 347 347 347 348 348 348 348 347 346 345 345 344 346 348 350 350 349 349 351 353 355 355 355 355 356 358 0 2 3 4 4 3 3 4 4 4 4 4 5 4 4 3 1 360 360 1 2 4 5 3
287 287 288 289 290 292 295 299 303 306 308 309 308 306 305 304 304 307 311 315 318 320 323 326 329 331 334 337 338 340 341 342 343 344 345 346 346 347 348 348 348 348 347 346 346 344 344 346 348 350 349 348 348 350 353 354 355 355 355 356 358 0 2 4 4 4 4 4 5 5 4 4 5 5 5 5 4 4 2 2 2 3 4 6 6
Height
5797 5798 5798 5798 5798 5798 5798 5798 5799 5799 5800 5800 5801 5801 5801 5801 5802 5802 5802 5802 5802 5802 5801 5801 5800 5800 5799 5798 5797 5796 5795 5794 5793 5792 5790 5789 5787 5786 5784 5783 5783 5782 5781 5781 5780 5779 5779 5778 5778 5777 5776 5775 5774 5773 5772 5771 5770 5768 5767 5766 5765 5763 5762 5761 5760 5759 5757 5756 5754 5753 5751 5750 5749 5747 5746 5745 5744 5742 5741 5740 5739 5738 5737 5736 5734
5798 5798 5798 5798 5798 5798 5799 5799 5800 5800 5801 5801 5801 5801 5802 5802 5802 5802 5802 5802 5802 5801 5801 5800 5800 5799 5798 5797 5796 5795 5794 5793 5792 5791 5789 5788 5786 5785 5783 5782 5782 5781 5780 5780 5779 5778 5777 5777 5776 5775 5774 5773 5772 5771 5770 5769 5768 5766 5765 5764 5762 5761 5760 5758 5757 5755 5754 5752 5751 5749 5747 5746 5745 5743 5742 5741 5739 5738 5737 5736 5735 5733 5732 5731 5730
5798 5799 5799 5799 5799 5799 5799 5800 5800 5801 5801 5801 5801 5802 5802 5802 5802 5802 5802 5802 5801 5801 5800 5800 5799 5798 5797 5796 5795 5794 5793 5792 5791 5789 5788 5787 5785 5784 5783 5782 5781 5780 5779 5778 5778 5777 5776 5775 5774 5773 5773 5771 5770 5769 5768 5766 5765 5764 5763 5761 5760 5759 5757 5755 5754 5752 5750 5748 5747 5745 5743 5742 5741 5739 5737 5736 5735 5734 5732 5731 5730 5729 5727 5726 5725
5799 5799 5799 5799 5799 5799 5800 5800 5800 5801 5801 5801 5802 5802 5802 5802 5802 5802 5802 5801 5801 5800 5799 5799 5798 5797 5796 5795 5794 5793 5792 5791 5789 5788 5787 5785 5784 5782 5781 5780 5779 5778 5778 5777 5776 5775 5774 5773 5772 5771 5770 5769 5768 5767 5765 5764 5762 5761 5760 5758 5757 5755 5754 5752 5751 5749 5747 5745 5743 5741 5739 5738 5737 5735 5733 5732 5730 5729 5728 5727 5725 5724 5723 5721 5720
5799 5799 5799 5799 5799 5799 5800 5800 5800 5801 5801 5801 5802 5802 5802 5802 5802 5802 5801 5801 5800 5799 5799 5798 5797 5796 5795 5794 5793 5792 5791 5789 5788 5787 5785 5783 5782 5780 5779 5778 5777 5776 5776 5775 5774 5773 5772 5771 5770 5769 5767 5766 5765 5764 5762 5761 5759 5758 5756 5755 5753 5752 5750 5749 5747 5745 5744 5742 5740 5738 5736 5734 5733 5731 5729 5728 5726 5724 5723 5722 5721 5719 5718 5717 5715
5799 5799 5799 5799 5799 5799 5799 5800 5800 5801 5801 5801 5802 5802 5802 5802 5802 5801 5801 5800 5799 5799 5798 5797 5796 5795 5794 5793 5792 5791 5790 5788 5787 5785 5784 5782 5780 5779 5778 5777 5776 5775 5774 5773 5772 5770 5769 5768 5767 5766 5765 5763 5762 5761 5759 5758 5756 5755 5753 5751 5750 5748 5746 5745 5743 5741 5740 5738 5736 5734 5732 5731 5729 5727 5726 5725 5723 5720 5718 5716 5715 5713 5712 5711 5710
5799 5799 5799 5799 5799 5799 5799 5799 5800 5801 5801 5801 5802 5802 5802 5802 5801 5801 5800 5800 5799 5798 5797 5796 5795 5794 5793 5792 5791 5790 5788 5787 5785 5784 5782 5781 5779 5778 5776 5775 5774 5773 5772 5771 5769 5768 5767 5765 5764 5763 5761 5760 5759 5757 5756 5754 5753 5751 5749 5747 5746 5744 5743 5741 5739 5737 5735 5733 5732 5730 5728 5726 5725 5723 5722 5721 5720 5718 5715 5712 5709 5707 5706 5704 5704
5799 5799 5799 5799 5799 5798 5799 5799 5800 5800 5801 5801 5801 5802 5801 5801 5801 5800 5800 5799 5798 5797 5796 5795 5795 5794 5793 5791 5790 5789 5787 5786 5784 5783 5781 5780 5778 5776 5775 5773 5772 5771 5770 5768 5767 5766 5764 5762 5761 5760 5759 5757 5756 5754 5752 5750 5748 5747 5745 5743 5742 5740 5739 5737 5735 5734 5732 5730 5727 5725 5723 5721 5720 5718 5716 5715 5714 5714 5712 5709 5706 5703 5700 5698 5697
5798 5798 5798 5798 5798 5798 5798 5799 5799 5800 5800 5801 5801 5801 5801 5801 5801 5800 5799 5798 5798 5797 5796 5795 5794 5793 5791 5790 5789 5787 5786 5785 5783 5782 5780 5778 5777 5775 5773 5772 5771 5769 5768 5766 5765 5763 5761 5760 5758 5757 5755 5754 5752 5750 5748 5746 5745 5743 5741 5740 5738 5737 5735 5733 5731 5729 5728 5726 5724 5722 5719 5717 5715 5713 5711 5709 5708 5707 5707 5705 5703 5700 5697 5693 5691
5798 5798 5798 5798 5798 5798 5798 5798 5799 5799 5800 5800 5800 5801 5801 5800 5800 5799 5798 5798 5797 5796 5795 5794 5793 5792 5790 5789 5788 5786 5785 5784 5782 5781 5779 5777 5775 5774 5772 5771 5769 5767 5766 5764 5762 5761 5759 5757 5755 5753 5752 5750 5748 5746 5745 5743 5741 5739 5738 5736 5734 5732 5731 5729 5727 5725 5723 5722 5720 5718 5716 5713 5711 5709 5706 5704 5702 5701 5700 5699 5697 5695 5693 5690 5685
5797 5797 5797 5797 5797 5798 5798 5798 5799 5799 5800 5800 5800 5800 5800 5799 5799 5798 5798 5797 5796 5795 5794 5793 5792 5791 5789 5788 5787 5785 5784 5783 5781 5779 5778 5776 5774 5772 5771 5769 5767 5765 5763 5761 5759 5757 5755 5754 5752 5750 5748 5746 5744 5743 5741 5739 5737 5736 5734 5732 5730 5729 5727 5725 5723 5722 5720 5718 5715 5713 5711 5709 5707 5704 5702 5699 5697 5695 5693 5692 5690 5688 5687 5685 5680
5797 5797 5797 5797 5797 5797 5798 5798 5799 5799 5799 5799 5799 5799 5799 5799 5798 5798 5797 5797 5795 5794 5793 5792 5791 5790 5788 5787 5786 5784 5783 5781 5780 5778 5776 5774 5772 5770 5768 5766 5764 5762 5760 5758 5756 5754 5752 5750 5748 5746 5744 5743 5741 5739 5737 5736 5734 5732 5730 5729 5727 5725 5724 5722 5720 5718 5716 5713 5711 5708 5706 5703 5701 5698 5696 5694 5691 5689 5687 5686 5684 5682 5680 5679 5675
5796 5796 5797 5797 5797 5797 5798 5798 5799 5799 5799 5799 5799 5799 5798 5798 5798 5797 5797 5795 5794 5793 5792 5791 5790 5789 5788 5786 5785 5783 5782 5780 5778 5777 5775 5773 5771 5768 5766 5763 5761 5759 5757 5755 5753 5751 5749 5747 5745 5743 5741 5740 5738 5736 5735 5733 5731 5730 5728 5726 5724 5723 5721 5719 5716 5714 5712 5709 5706 5704 5701 5698 5696 5693 5691 5688 5685 5683 5680 5679 5677 5674 5673 5672 5669
5796 5796 5796 5797 5797 5797 5798 5798 5799 5799 5798 5798 5798 5798 5798 5798 5797 5797 5795 5794 5793 5793 5792 5790 5789 5788 5786 5785 5783 5782 5780 5779 5777 5775 5773 5771 5768 5765 5763 5760 5758 5756 5754 5752 5750 5748 5746 5744 5743 5741 5739 5737 5736 5734 5732 5731 5729 5727 5726 5724 5722 5720 5717 5715 5712 5710 5708 5705 5702 5700 5697 5694 5691 5688 5685 5682 5679 5676 5673 5670 5669 5667 5665 5663 5661
5796 5796 5796 5797 5797 5797 5798 5798 5798 5798 5798 5798 5798 5798 5797 5797 5796 5796 5794 5793 5793 5792 5791 5789 5788 5786 5785 5784 5782 5781 5779 5777 5775 5773 5771 5768 5765 5763 5760 5758 5756 5754 5752 5750 5748 5746 5744 5742 5740 5739 5737 5735 5733 5732 5730 5729 5727 5725 5723 5721 5719 5716 5714 5711 5709 5706 5703 5701 5698 5695 5692 5689 5686 5683 5679 5676 5672 5668 5665 5661 5659 5658 5657 5656 5653
5796 5796 5797 5797 5797 5797 5798 5798 5798 5798 5798 5798 5798 5797 5797 5796 5796 5795 5793 5792 5791 5790 5789 5788 5786 5785 5783 5782 5780 5779 5777 5775 5773 5771 5769 5766 5764 5761 5758 5756 5754 5752 5750 5748 5746 5744 5742 5740 5739 5737 5735 5733 5732 5730 5728 5726 5724 5722 5720 5717 5715 5712 5710 5707 5705 5702 5699 5697 5694 5691 5688 5684 5681 5677 5673 5669 5664 5660 5656 5652 5648 5645 5645 5645 5644
5796 5796 5797 5797 5797 5797 5798 5797 5797 5798 5798 5798 5797 5797 5796 5795 5795 5793 5792 5791 5790 5788 5787 5786 5785 5783 5782 5781 5779 5777 5776 5774 5772 5769 5767 5765 5762 5759 5757 5755 5752 5750 5748 5746 5745 5743 5741 5739 5737 5735 5733 5731 5730 5728 5725 5723 5721 5719 5716 5714 5712 5709 5707 5704 5701 5699 5696 5693 5689 5686 5682 5678 5673 5669 5665 5660 5656 5651 5646 5642 5638 5634 5631 5630 5630
5796 5796 5797 5797 5797 5797 5797 5797 5797 5797 5797 5797 5796 5796 5795 5795 5794 5792 5791 5789 5788 5786 5785 5784 5783 5782 5781 5780 5778 5777 5775 5773 5771 5769 5766 5763 5761 5759 5756 5754 5751 5749 5747 5745 5743 5741 5739 5737 5735 5733 5731 5729 5727 5725 5722 5720 5718 5716 5713 5711 5708 5706 5703 5700 5697 5694 5691 5687 5683 5679 5675 5670 5666 5662 5657 5652 5647 5643 5638 5633 5629 5624 5620 5617 5615
5796 5796 5796 5797 5797 5797 5797 5797 5797 5797 5797 5797 5796 5795 5795 5794 5793 5791 5789 5788 5787 5786 5785 5784 5783 5782 5781 5779 5778 5777 5775 5773 5771 5768 5765 5762 5760 5757 5755 5753 5750 5748 5746 5744 5741 5739 5737 5735 5733 5731 5729 5727 5724 5722 5720 5718 5715 5713 5710 5707 5705 5702 5699 5696 5692 5689 5685 5681 5677 5673 5668 5664 5659 5654 5649 5644 5639 5634 5630 5625 5620 5616 5610 5607 5603
5795 5795 5796 5796 5796 5797 5797 5797 5797 5797 5797 5796 5796 5795 5794 5793 5792 5790 5789 5788 5786 5785 5784 5784 5783 5782 5781 5779 5778 5776 5774 5772 5770 5767 5764 5761 5758 5756 5753 5751 5748 5746 5744 5742 5739 5737 5735 5733 5731 5729 5727 5724 5722 5720 5717 5715 5712 5710 5707 5704 5701 5698 5694 5691 5687 5684 5680 5676 5671 5667 5662 5658 5652 5647 5642 5637 5632 5627 5622 5617 5612 5608 5601 5596 5593
5795 5795 5795 5796 5796 5796 5796 5796 5796 5796 5796 5796 5795 5794 5793 5792 5791 5790 5789 5787 5786 5785 5784 5783 5783 5782 5781 5779 5778 5776 5774 5771 5768 5765 5763 5760 5757 5754 5752 5749 5746 5744 5742 5740 5738 5735 5733 5731 5729 5727 5725 5722 5720 5717 5715 5712 5709 5706 5703 5700 5697 5694 5690 5686 5682 5678 5674 5670 5666 5661 5656 5651 5645 5641 5635 5630 5625 5620 5614 5609 5603 5598 5592 5585 5580
5794 5794 5795 5795 5795 5796 5796 5795 5796 5796 5796 5795 5795 5794 5793 5792 5791 5790 5788 5787 5786 5785 5784 5783 5783 5782 5781 5779 5777 5775 5773 5770 5767 5764 5761 5759 5756 5753 5750 5747 5745 5742 5740 5738 5736 5734 5731 5729 5727 5725 5722 5719 5717 5714 5711 5708 5705 5702 5699 5696 5693 5689 5686 5682 5678 5674 5669 5664 5660 5655 5649 5644 5639 5634 5628 5623 5617 5611 5605 5600 5594 5587 5582 5575 5568
5793 5794 5794 5794 5795 5795 5795 5795 5795 5795 5795 5795 5794 5793 5792 5791 5790 5789 5787 5786 5785 5785 5784 5783 5782 5781 5780 5778 5776 5773 5771 5768 5765 5762 5760 5757 5754 5750 5747 5745 5743 5741 5738 5736 5734 5731 5729 5727 5724 5722 5719 5716 5714 5711 5708 5705 5702 5699 5696 5693 5689 5686 5682 5678 5673 5669 5664 5659 5654 5649 5644 5639 5633 5627 5621 5614 5608 5602 5596 5590 5584 5577 5572 5566 5559
5793 5793 5793 5794 5794 5794 5794 5794 5794 5794 5794 5793 5793 5792 5791 5790 5789 5788 5786 5786 5785 5784 5783 5782 5781 5780 5779 5777 5774 5771 5769 5766 5763 5760 5758 5755 5751 5748 5745 5742 5740 5738 5736 5734 5731 5729 5727 5724 5721 5719 5716 5713 5710 5708 5705 5702 5699 5696 5693 5689 5685 5681 5677 5673 5669 5664 5659 5654 5649 5644 5638 5632 5626 5620 5613 5607 5600 5593 5586 5579 5573 5566 5559 5554 5548
5792 5792 5793 5793 5793 5793 5793 5793 5793 5793 5793 5792 5792 5791 5790 5789 5788 5787 5786 5785 5784 5783 5782 5781 5780 5779 5777 5774 5772 5769 5766 5763 5761 5759 5756 5752 5748 5745 5743 5740 5738 5736 5734 5731 5729 5727 5724 5722 5719 5716 5713 5710 5708 5705 5702 5699 5696 5693 5689 5685 5681 5677 5673 5668 5664 5659 5654 5649 5643 5638 5632 5625 5619 5613 5605 5599 5591 5583 5576 5569 5561 5555 5548 5541 5535
5792 5792 5792 5792 5792 5792 5793 5793 5793 5792 5792 5792 5791 5790 5789 5788 5787 5786 5785 5784 5783 5782 5782 5781 5779 5777 5774 5772 5769 5766 5764 5762 5759 5756 5753 5749 5746 5743 5740 5738 5736 5734 5732 5730 5728 5725 5722 5719 5716 5713 5710 5708 5705 5702 5699 5696 5693 5689 5685 5681 5677 5672 5668 5664 5659 5654 5649 5643 5637 5631 5625 5618 5612 5605 5598 5590 5583 5575 5567 5559 5551 5544 5536 5529 5522
5791 5791 5791 5791 5792 5792 5792 5792 5792 5792 5791 5791 5790 5789 5788 5787 5786 5785 5784 5783 5782 5782 5781 5780 5778 5775 5772 5770 5767 5765 5763 5760 5757 5754 5750 5747 5744 5741 5739 5737 5735 5733 5731 5728 5725 5722 5719 5716 5713 5711 5708 5705 5702 5699 5696 5692 5689 5685 5681 5677 5672 5668 5664 5660 5655 5650 5643 5637 5631 5624 5618 5612 5604 5597 5590 5582 5574 5567 5558 5549 5541 5533 5525 5517 5509
5791 5791 5791 5791 5791 5792 5791 5791 5791 5791 5791 5790 5789 5788 5788 5787 5786 5784 5783 5782 5782 5781 5780 5778 5776 5773 5770 5768 5766 5764 5761 5758 5755 5751 5748 5745 5742 5739 5737 5736 5734 5731 5729 5726 5723 5720 5717 5714 5711 5708 5705 5702 5699 5696 5692 5689 5685 5681 5677 5673 5669 5665 5660 5655 5650 5644 5638 5632 5625 5618 5611 5605 5597 5589 5581 5572 5564 5557 5550 5540 5531 5522 5513 5505 5498
5790 5790 5791 5791 5791 5791 5791 5791 5791 5790 5790 5789 5789 5788 5787 5786 5785 5783 5783 5782 5781 5780 5778 5776 5773 5771 5769 5766 5764 5762 5759 5755 5752 5749 5746 5743 5740 5738 5736 5734 5732 5729 5726 5723 5721 5718 5714 5711 5708 5706 5703 5699 5696 5692 5689 5685 5681 5678 5674 5670 5666 5662 5657 5651 5645 5639 5633 5626 5620 5613 5605 5597 5589 5581 5572 5564 5555 5547 5539 5530 5521 5512 5503 5496 5490
5790 5790 5791 5791 5791 5790 5790 5790 5790 5790 5789 5789 5788 5787 5786 5785 5784 5783 5782 5782 5780 5778 5776 5774 5772 5769 5767 5765 5762 5759 5756 5753 5750 5747 5744 5741 5739 5737 5735 5733 5730 5727 5724 5721 5718 5715 5712 5709 5706 5703 5700 5697 5693 5689 5686 5682 5679 5675 5671 5667 5663 5658 5653 5647 5641 5635 5629 5622 5615 5607 5599 5591 5583 5574 5565 5556 5547 5538 5528 5519 5510 5502 5495 5489 5483
5790 5790 5790 5790 5790 5790 5790 5790 5790 5789 5788 5788 5787 5786 5785 5784 5783 5782 5782 5781 5779 5776 5774 5772 5770 5768 5765 5763 5760 5757 5754 5752 5748 5745 5742 5740 5738 5736 5733 5730 5727 5724 5722 5719 5716 5713 5710 5707 5704 5701 5698 5694 5690 5687 5683 5679 5676 5672 5668 5664 5659 5654 5649 5643 5638 5632 5625 5618 5610 5602 5594 5586 5578 5569 5560 5551 5541 5531 5520 5510 5500 5492 5486 5481 5476
5790 5790 5790 5790 5790 5789 5789 5789 5789 5788 5787 5787 5786 5785 5784 5783 5782 5781 5781 5779 5777 5775 5773 5771 5768 5766 5764 5761 5758 5755 5753 5750 5746 5743 5741 5739 5737 5734 5731 5728 5725 5722 5720 5717 5714 5711 5708 5706 5703 5699 5695 5691 5688 5684 5680 5677 5673 5669 5665 5661 5656 5650 5645 5640 5634 5628 5621 5614 5606 5597 5589 5581 5573 5564 5555 5545 5535 5524 5513 5502 5493 5485 5479 5474 5469
5789 5789 5789 5789 5789 5789 5789 5788 5788 5787 5786 5786 5785 5784 5783 5782 5781 5780 5779 5777 5775 5773 5771 5769 5767 5764 5762 5759 5756 5754 5751 5747 5744 5743 5741 5738 5735 5732 5729 5726 5723 5721 5718 5715 5712 5710 5707 5704 5700 5696 5692 5689 5685 5682 5678 5674 5670 5666 5662 5657 5652 5647 5642 5636 5631 5624 5617 5609 5601 5593 5585 5576 5568 5560 5550 5540 5530 5519 5507 5497 5488 5481 5474 5469 5464
5788 5788 5788 5788 5788 5788 5787 5787 5786 5786 5785 5785 5784 5783 5782 5781 5780 5779 5777 5775 5773 5771 5769 5767 5765 5762 5760 5757 5755 5752 5749 5746 5744 5742 5740 5737 5734 5731 5728 5725 5722 5719 5716 5714 5711 5708 5705 5701 5698 5694 5690 5686 5683 5679 5675 5671 5667 5663 5658 5653 5648 5643 5638 5633 5627 5620 5613 5605 5597 5589 5581 5573 5564 5555 5546 5536 5525 5514 5503 5493 5485 5478 5471 5465 5460
5787 5787 5788 5788 5787 5787 5786 5786 5785 5785 5784 5784 5783 5782 5781 5780 5778 5776 5775 5773 5771 5769 5767 5765 5763 5760 5758 5756 5753 5750 5748 5746 5744 5741 5739 5736 5733 5729 5726 5723 5720 5717 5715 5712 5709 5706 5703 5699 5695 5691 5688 5684 5680 5676 5673 5669 5664 5660 5655 5650 5645 5640 5634 5628 5622 5615 5608 5601 5593 5584 5576 5568 5560 5551 5541 5531 5520 5509 5499 5490 5482 5475 5468 5462 5457
5786 5786 5787 5786 5786 5786 5785 5785 5785 5784 5784 5783 5782 5780 5779 5778 5776 5775 5773 5771 5769 5767 5765 5764 5761 5759 5757 5755 5752 5749 5747 5745 5743 5740 5737 5734 5731 5728 5725 5722 5719 5716 5713 5711 5708 5704 5700 5696 5693 5689 5686 5682 5678 5674 5670 5666 5661 5656 5652 5647 5642 5636 5630 5624 5618 5611 5604 5597 5589 5580 5572 5564 5555 5546 5536 5525 5515 5504 5495 5487 5480 5472 5465 5459 5454
5785 5785 5785 5785 5785 5785 5785 5785 5784 5784 5782 5781 5780 5779 5778 5776 5775 5773 5771 5769 5768 5766 5764 5762 5760 5758 5756 5753 5751 5749 5747 5744 5742 5739 5736 5733 5730 5727 5724 5720 5717 5715 5712 5709 5705 5702 5698 5695 5691 5687 5684 5680 5676 5672 5668 5663 5658 5654 5649 5644 5638 5633 5627 5620 5614 5607 5600 5592 5584 5576 5568 5560 5551 5542 5532 5522 5511 5501 5492 5484 5478 5470 5463 5457 5452
5784 5784 5784 5784 5784 5784 5784 5784 5783 5782 5781 5779 5778 5777 5776 5774 5773 5771 5770 5768 5766 5765 5763 5761 5759 5757 5755 5752 5750 5748 5746 5743 5740 5738 5734 5731 5728 5725 5722 5719 5716 5714 5710 5707 5703 5699 5696 5693 5689 5686 5682 5678 5674 5670 5665 5661 5656 5651 5646 5641 5636 5630 5624 5617 5610 5603 5595 5587 5579 5571 5563 5554 5546 5537 5527 5517 5507 5497 5489 5482 5475 5469 5461 5454 5449
5783 5783 5784 5784 5784 5783 5783 5782 5781 5780 5778 5777 5776 5775 5774 5772 5771 5770 5769 5767 5766 5764 5762 5760 5758 5755 5753 5751 5749 5747 5745 5742 5739 5736 5733 5730 5727 5724 5721 5718 5715 5712 5708 5704 5701 5698 5694 5691 5688 5684 5680 5676 5672 5668 5663 5659 5654 5649 5644 5638 5633 5627 5621 5614 5607 5600 5592 5584 5575 5567 5558 5549 5541 5532 5523 5513 5502 5493 5485 5478 5472 5465 5459 5452 5445
5782 5782 5783 5783 5782 5781 5780 5780 5779 5778 5777 5776 5775 5774 5772 5771 5770 5769 5767 5766 5765 5763 5761 5758 5756 5754 5752 5750 5748 5746 5743 5741 5738 5735 5732 5729 5726 5723 5720 5717 5714 5710 5706 5702 5699 5696 5693 5690 5686 5682 5678 5674 5670 5666 5661 5656 5651 5646 5641 5636 5630 5625 5618 5612 5605 5598 5589 5581 5572 5564 5555 5546 5537 5529 5519 5509 5498 5489 5481 5474 5468 5461 5455 5449 5443
5782 5782 5782 5781 5780 5779 5778 5777 5777 5776 5775 5774 5774 5772 5771 5770 5769 5768 5766 5765 5763 5761 5759 5756 5754 5753 5751 5749 5747 5745 5742 5740 5737 5734 5731 5728 5725 5722 5719 5715 5712 5708 5704 5700 5697 5694 5691 5688 5684 5680 5676 5672 5668 5664 5659 5654 5649 5644 5639 5634 5628 5623 5616 5610 5602 5594 5586 5579 5570 5561 5552 5543 5534 5525 5516 5505 5494 5484 5476 5469 5463 5457 5450 5444 5439
5781 5780 5780 5780 5779 5778 5777 5776 5775 5775 5774 5773 5772 5771 5770 5769 5767 5766 5764 5762 5760 5759 5757 5755 5753 5752 5750 5748 5746 5743 5741 5738 5736 5733 5730 5727 5724 5721 5717 5713 5709 5706 5702 5699 5696 5693 5689 5686 5682 5678 5674 5670 5666 5661 5657 5652 5646 5642 5637 5632 5626 5620 5614 5607 5599 5591 5583 5576 5567 5559 5550 5540 5531 5521 5512 5501 5491 5481 5473 5466 5460 5454 5447 5441 5436
5779 5778 5778 5777 5776 5776 5775 5775 5774 5773 5773 5772 5771 5769 5768 5767 5765 5763 5762 5760 5758 5757 5755 5754 5753 5751 5749 5747 5744 5742 5739 5737 5734 5731 5729 5726 5722 5719 5715 5711 5707 5704 5701 5697 5694 5691 5687 5684 5680 5676 5672 5668 5663 5659 5654 5649 5644 5639 5635 5629 5624 5618 5612 5605 5597 5589 5581 5573 5564 5556 5547 5538 5528 5517 5507 5497 5487 5479 5471 5464 5458 5452 5446 5440 5435
5776 5776 5776 5775 5774 5774 5774 5773 5773 5772 5771 5770 5769 5767 5766 5765 5763 5761 5760 5758 5757 5756 5754 5753 5751 5749 5747 5745 5743 5740 5738 5735 5733 5730 5727 5724 5720 5716 5712 5709 5706 5702 5699 5696 5692 5689 5685 5682 5678 5674 5670 5666 5661 5657 5652 5647 5642 5637 5632 5627 5621 5616 5609 5602 5594 5586 5578 5569 5561 5553 5544 5535 5525 5514 5503 5493 5484 5476 5469 5463 5457 5451 5445 5439 5434
5774 5773 5773 5773 5772 5772 5772 5771 5770 5770 5769 5767 5766 5765 5763 5762 5760 5759 5758 5757 5756 5755 5753 5752 5750 5748 5746 5743 5741 5739 5736 5734 5731 5729 5726 5722 5718 5714 5710 5707 5704 5701 5697 5694 5690 5687 5683 5680 5676 5672 5668 5664 5659 5655 5650 5645 5640 5635 5630 5625 5619 5614 5607 5599 5591 5583 5575 5567 5558 5549 5540 5532 5523 5513 5502 5492 5482 5474 5468 5462 5456 5450 5444 5439 5435
5772 5771 5771 5771 5770 5770 5770 5769 5768 5767 5766 5765 5763 5762 5761 5760 5758 5757 5756 5756 5755 5753 5752 5750 5748 5746 5744 5742 5740 5737 5735 5733 5730 5727 5723 5719 5716 5712 5709 5706 5702 5699 5695 5692 5688 5685 5681 5678 5674 5670 5666 5662 5657 5653 5648 5643 5638 5633 5628 5623 5618 5611 5604 5596 5589 5581 5573 5564 5555 5547 5538 5529 5520 5510 5500 5490 5480 5472 5465 5460 5455 5450 5445 5440 5436
5770 5769 5769 5769 5768 5768 5767 5767 5766 5765 5764 5762 5761 5760 5759 5758 5757 5756 5755 5754 5753 5752 5750 5748 5746 5744 5742 5740 5738 5736 5733 5731 5728 5725 5721 5717 5714 5711 5707 5704 5700 5697 5693 5690 5687 5683 5679 5676 5672 5668 5664 5660 5656 5651 5646 5641 5636 5631 5626 5622 5616 5609 5602 5594 5587 5579 5571 5563 5555 5546 5537 5527 5516 5505 5495 5486 5479 5472 5466 5461 5456 5450 5445 5440 5436
5768 5768 5767 5767 5767 5766 5765 5764 5764 5763 5761 5760 5759 5759 5758 5757 5756 5755 5754 5753 5752 5750 5748 5747 5745 5743 5741 5739 5736 5734 5732 5729 5726 5722 5719 5716 5713 5709 5706 5702 5699 5695 5692 5688 5685 5681 5678 5674 5670 5667 5663 5658 5654 5649 5644 5639 5634 5630 5625 5620 5615 5608 5601 5594 5587 5579 5572 5564 5555 5546 5536 5526 5517 5507 5498 5489 5481 5474 5468 5463 5457 5451 5445 5440 5436
5766 5766 5765 5765 5764 5764 5763 5762 5761 5760 5759 5758 5757 5757 5756 5755 5754 5753 5752 5751 5750 5748 5747 5745 5743 5741 5739 5737 5735 5732 5730 5727 5724 5721 5718 5715 5711 5708 5704 5701 5697 5693 5690 5686 5683 5679 5676 5672 5669 5665 5661 5657 5653 5648 5643 5639 5634 5629 5625 5620 5614 5608 5601 5594 5587 5579 5571 5563 5554 5546 5537 5529 5521 5512 5503 5494 5485 5477 5470 5464 5459 5453 5447 5442 5437
5764 5763 5763 5763 5762 5762 5761 5760 5759 5758 5757 5756 5756 5755 5754 5753 5753 5752 5750 5749 5748 5746 5745 5743 5741 5739 5737 5735 5733 5730 5728 5725 5722 5719 5716 5713 5710 5707 5703 5699 5695 5692 5688 5685 5681 5678 5674 5671 5667 5664 5660 5656 5652 5647 5642 5638 5633 5628 5624 5619 5613 5607 5600 5593 5585 5578 5571 5563 5554 5546 5538 5530 5523 5514 5506 5497 5488 5480 5473 5466 5460 5455 5449 5444 5439
5762 5761 5761 5760 5760 5759 5758 5757 5757 5756 5755 5754 5754 5753 5752 5752 5751 5750 5749 5747 5746 5744 5742 5741 5739 5737 5735 5733 5730 5728 5725 5723 5720 5718 5715 5712 5709 5705 5701 5697 5694 5690 5687 5683 5680 5676 5673 5669 5666 5662 5659 5655 5650 5646 5641 5636 5632 5627 5622 5617 5612 5605 5598 5591 5584 5578 5570 5562 5554 5546 5538 5530 5522 5514 5506 5497 5489 5481 5474 5467 5461 5456 5451 5446 5441